EW2288 Weather Reports


time (UTC)temp
C
wind
direction
speed
KPH
gust
KPH
rain 1hr
cm
rain 24hr
cm
rain mn
cm
humidity
%
barometer
mb
20260508083037 8 338 4.8 9.7 0.00 0.00 0.00 52 1014.8
20260508082037 8 338 3.2 8.0 0.00 0.00 0.00 54 1014.9
20260508081017 9 338 1.6 6.4 0.00 0.00 0.00 55 1014.9
20260508080037 8 0 1.6 4.8 0.00 0.00 0.00 57 1015.1
20260508075017 8 23 1.6 4.8 0.00 0.00 0.00 59 1015.0
20260508074017 7 338 1.6 4.8 0.00 0.00 0.00 59 1015.0
20260508073017 7 338 1.6 3.2 0.00 0.00 0.00 61 1015.0
20260508072017 6 45 1.6 4.8 0.00 0.00 0.00 63 1015.1
20260508071017 6 315 1.6 4.8 0.00 0.00 0.00 67 1015.1
20260508070017 5 0.0 3.2 0.00 0.00 0.00 69 1015.1
20260508065037 5 0.0 3.2 0.00 0.00 0.00 70 1015.1
20260508064016 5 0.0 0.0 0.00 0.00 0.00 72 1015.1
20260508063017 4 0.0 0.0 0.00 0.00 0.00 73 1015.2
20260508062016 4 0.0 0.0 0.00 0.00 0.00 75 1015.3
20260508061016 3 0.0 1.6 0.00 0.00 0.00 75 1015.3
20260508060016 3 0.0 1.6 0.00 0.00 0.00 76 1015.3
20260508055016 3 0.0 1.6 0.00 0.00 0.00 78 1015.3
20260508054017 3 0.0 1.6 0.00 0.00 0.00 79 1015.3
20260508053016 2 0.0 0.0 0.00 0.00 0.00 80 1015.3
20260508052017 2 0.0 0.0 0.00 0.00 0.00 81 1015.3
20260508051016 2 0.0 0.0 0.00 0.00 0.00 82 1015.3
20260508050017 1 0.0 0.0 0.00 0.00 0.00 84 1015.2
20260508045016 1 0.0 0.0 0.00 0.00 0.00 85 1015.3
20260508044036 0 158 1.6 3.2 0.00 0.00 0.00 86 1015.2
20260508043016 0 158 3.2 4.8 0.00 0.00 0.00 86 1015.3
20260508042016 0 158 3.2 4.8 0.00 0.00 0.00 87 1015.3
20260508041036 0 158 3.2 8.0 0.00 0.00 0.00 87 1015.3
20260508040016 0 158 3.2 4.8 0.00 0.00 0.00 87 1015.4
20260508035016 0 158 1.6 4.8 0.00 0.00 0.00 87 1015.3
20260508034016 0 158 3.2 8.0 0.00 0.00 0.00 87 1015.5
20260508033016 0 0.0 0.0 0.00 0.00 0.00 87 1015.5
20260508032016 0 0.0 0.0 0.00 0.00 0.00 87 1015.5
20260508031016 0 0.0 0.0 0.00 0.00 0.00 87 1015.5
20260508030016 0 0.0 0.0 0.00 0.00 0.00 87 1015.6
20260508025036 -1 0.0 0.0 0.00 0.00 0.00 87 1015.5
20260508024016 0 0.0 0.0 0.00 0.00 0.00 87 1015.6
20260508023036 0 0.0 0.0 0.00 0.00 0.00 86 1015.6
20260508022016 0 0.0 0.0 0.00 0.00 0.00 86 1015.6
20260508021036 0 0.0 0.0 0.00 0.00 0.00 86 1015.7
20260508020016 0 0.0 0.0 0.00 0.00 0.00 86 1015.7
20260508015016 0 0.0 0.0 0.00 0.00 0.00 85 1015.6
20260508014016 0 0.0 0.0 0.00 0.00 0.00 85 1015.7
20260508013016 0 0.0 0.0 0.00 0.00 0.00 84 1015.7
20260508012016 0 0.0 0.0 0.00 0.00 0.00 85 1015.7
20260508011016 0 158 1.6 3.2 0.00 0.00 0.00 85 1015.8
20260508010036 0 0.0 0.0 0.00 0.00 0.00 84 1015.8
20260508005016 0 0.0 1.6 0.00 0.00 0.00 84 1015.9
20260508004156 0 0.0 1.6 0.00 0.00 0.00 84 1016.1
20260508003016 0 0.0 0.0 0.00 0.00 0.00 84 1016.0
20260508002120 0 0.0 1.6 0.00 0.00 0.00 84 1016.0
20260508001016 0 0.0 0.0 0.00 0.00 0.00 83 1016.1
20260508000016 0 0.0 3.2 0.00 0.00 0.00 83 1016.1
20260507235016 0 0.0 0.0 0.00 0.00 0.00 82 1016.1
20260507234016 0 0.0 0.0 0.00 0.00 0.00 81 1016.2
20260507233016 0 0.0 0.0 0.00 0.00 0.00 81 1016.2
20260507232036 0 0.0 0.0 0.00 0.00 0.00 80 1016.2
20260507231016 1 0.0 0.0 0.00 0.00 0.00 79 1016.2
20260507230016 1 0.0 3.2 0.00 0.00 0.00 80 1016.3
20260507225015 1 158 3.2 8.0 0.00 0.00 0.00 79 1016.2
20260507224016 1 0.0 3.2 0.00 0.00 0.00 78 1016.2
20260507223016 1 0.0 0.0 0.00 0.00 0.00 78 1016.2
20260507222015 1 0.0 0.0 0.00 0.00 0.00 77 1016.3
20260507221015 1 0.0 0.0 0.00 0.00 0.00 76 1016.3
20260507220016 2 0.0 0.0 0.00 0.00 0.00 75 1016.2
20260507215017 2 0.0 0.0 0.00 0.00 0.00 74 1016.3
20260507214017 2 0.0 0.0 0.00 0.00 0.00 74 1016.3
20260507213017 2 0.0 3.2 0.00 0.00 0.00 73 1016.2
20260507212017 2 0.0 0.0 0.00 0.00 0.00 72 1016.1
20260507211017 2 0.0 0.0 0.00 0.00 0.00 71 1016.1
20260507210057 3 0.0 0.0 0.00 0.00 0.00 70 1016.1
20260507205017 3 0.0 0.0 0.00 0.00 0.00 71 1016.1
20260507204017 3 0.0 0.0 0.00 0.00 0.00 70 1016.0
20260507203017 3 0.0 0.0 0.00 0.00 0.00 70 1016.0
20260507202017 3 0.0 0.0 0.00 0.00 0.00 69 1015.9
20260507201037 4 0.0 0.0 0.00 0.00 0.00 67 1015.9
20260507200017 4 0.0 0.0 0.00 0.00 0.00 66 1015.7
20260507195017 5 45 1.6 3.2 0.00 0.00 0.00 65 1015.6
20260507194017 5 0.0 0.0 0.00 0.00 0.00 62 1015.5
20260507193037 6 0.0 0.0 0.00 0.00 0.00 60 1015.4
20260507192017 6 0.0 3.2 0.00 0.00 0.00 59 1015.2
20260507191017 6 45 3.2 6.4 0.00 0.00 0.00 58 1015.2
20260507190017 6 23 1.6 4.8 0.00 0.00 0.00 56 1015.1
20260507185017 6 45 3.2 8.0 0.00 0.00 0.00 57 1015.1
20260507184017 6 45 3.2 6.4 0.00 0.00 0.00 57 1015.0
20260507183017 7 23 3.2 4.8 0.00 0.00 0.00 56 1015.0
20260507182017 7 23 3.2 6.4 0.00 0.00 0.00 55 1015.0
20260507181037 7 338 4.8 8.0 0.00 0.00 0.00 54 1014.9
20260507180017 7 338 1.6 8.0 0.00 0.00 0.00 55 1015.0
20260507175017 7 0 1.6 4.8 0.00 0.00 0.00 55 1014.9
20260507174036 7 45 4.8 9.7 0.00 0.00 0.00 55 1014.9
20260507173017 7 338 4.8 9.7 0.00 0.00 0.00 54 1014.7
20260507172016 7 45 4.8 16.1 0.00 0.00 0.00 54 1014.7
20260507171016 7 23 4.8 12.9 0.00 0.00 0.00 53 1014.7
20260507170016 8 0 6.4 16.1 0.00 0.00 0.00 52 1014.7
20260507165016 8 315 3.2 16.1 0.00 0.00 0.00 50 1014.6
20260507164016 8 293 4.8 11.3 0.00 0.00 0.00 48 1014.6
20260507163016 8 293 6.4 14.5 0.00 0.00 0.00 49 1014.6
20260507162017 8 23 4.8 12.9 0.00 0.00 0.00 50 1014.5
20260507161017 8 270 8.0 14.5 0.00 0.00 0.00 49 1014.6
20260507160016 8 315 8.0 16.1 0.00 0.00 0.00 50 1014.5
20260507155016 8 293 8.0 17.7 0.00 0.00 0.00 50 1014.5
20260507154016 8 293 6.4 16.1 0.00 0.00 0.00 50 1014.5
20260507153036 8 293 9.7 16.1 0.00 0.00 0.00 52 1014.5
20260507152056 8 293 8.0 19.3 0.00 0.00 0.00 54 1014.4
20260507151016 8 293 9.7 17.7 0.00 0.00 0.00 53 1014.3
20260507150016 8 315 6.4 16.1 0.00 0.00 0.00 55 1014.3
20260507145016 8 315 6.4 17.7 0.00 0.00 0.00 55 1014.2
20260507144016 8 293 6.4 12.9 0.00 0.00 0.00 55 1014.2
20260507143016 9 315 6.4 19.3 0.00 0.00 0.00 52 1014.2
20260507142016 9 293 8.0 22.5 0.00 0.00 0.00 53 1014.0
20260507141016 9 270 8.0 17.7 0.00 0.00 0.00 52 1013.9
20260507140016 8 293 8.0 17.7 0.00 0.00 0.00 55 1013.9
20260507135016 8 23 4.8 9.7 0.00 0.00 0.00 59 1013.9
20260507134016 7 338 4.8 12.9 0.00 0.00 0.00 61 1013.9
20260507133036 7 0 4.8 14.5 0.00 0.00 0.00 63 1013.8
20260507132036 8 338 3.2 12.9 0.00 0.00 0.00 62 1013.7
20260507131016 7 338 4.8 12.9 0.00 0.00 0.00 62 1013.7
20260507130016 7 45 3.2 9.7 0.00 0.00 0.00 63 1013.7
20260507125016 8 315 8.0 16.1 0.00 0.00 0.00 56 1013.7
20260507124056 8 293 6.4 14.5 0.00 0.00 0.00 49 1013.5
20260507123016 8 270 4.8 17.7 0.00 0.00 0.00 51 1013.5
20260507122016 8 293 4.8 11.3 0.00 0.00 0.00 54 1013.4
20260507121016 7 248 3.2 12.9 0.00 0.00 0.00 52 1013.4
20260507120016 7 248 4.8 11.3 0.00 0.00 0.00 52 1013.3
20260507115036 7 270 6.4 19.3 0.00 0.00 0.00 52 1013.4
20260507114016 7 270 8.0 16.1 0.00 0.00 0.00 53 1013.2
20260507113016 7 270 4.8 16.1 0.00 0.00 0.00 52 1013.2
20260507112016 8 225 6.4 12.9 0.00 0.00 0.00 47 1013.1
20260507111036 8 270 8.0 17.7 0.00 0.00 0.00 46 1012.9
20260507110016 8 225 4.8 14.5 0.00 0.00 0.00 49 1012.8
20260507105016 8 248 6.4 14.5 0.00 0.00 0.00 48 1012.7
20260507104016 8 248 4.8 12.9 0.00 0.00 0.00 49 1012.6
20260507103016 7 225 4.8 11.3 0.00 0.00 0.00 49 1012.5
20260507102016 7 248 6.4 16.1 0.00 0.00 0.00 49 1012.4
20260507101016 7 248 6.4 14.5 0.00 0.00 0.00 50 1012.4
20260507100016 7 270 6.4 17.7 0.00 0.00 0.00 50 1012.4
20260507095015 7 270 6.4 16.1 0.00 0.00 0.00 51 1012.3
20260507094015 7 293 3.2 8.0 0.00 0.00 0.00 57 1012.4
20260507093016 8 293 4.8 14.5 0.00 0.00 0.00 54 1012.2
20260507092016 8 248 4.8 11.3 0.00 0.00 0.00 48 1012.1
20260507091015 9 158 3.2 14.5 0.00 0.00 0.00 49 1012.1
20260507090015 8 248 3.2 11.3 0.00 0.00 0.00 48 1012.1
20260507085037 9 248 8.0 19.3 0.00 0.00 0.00 46 1012.1
20260507084018 9 248 3.2 9.7 0.00 0.00 0.00 52 1012.0